Regional Weather Roundup
Issued by NWS

Home | Current Version | Previous Version | Graphics & Text | Print | Product List | Glossary On
Versions: 1 2 3 4 5 6 7 8 9 10 11 12 13 14 15 16 17 18 19 20 21 22 23 24 25 26 27 28 29 30 31 32 33 34 35 36 37 38 39 40 41 42 43 44 45 46 47 48 49 50
000
ASUS43 KMPX 281410
RWRMN
WEATHER ROUNDUP FOR MINNESOTA
NATIONAL WEATHER SERVICE TWIN CITIES/CHANHASSEN MN
900 AM CDT THU AUG 28 2014


NOTE: "FAIR" INDICATES FEW OR NO CLOUDS BELOW 12,000 FEET WITH NO
SIGNIFICANT WEATHER AND/OR OBSTRUCTIONS TO VISIBILITY. N/A MEANS
CURRENT SKY AND/OR WEATHER CONDITIONS ARE NOT AVAILABLE.

MNZ060>063-068>070-281500-
   Twin Cities Metro

CITY           SKY/WX    TMP DP  RH WIND       PRES   REMARKS
TWIN CITIES    PTSUNNY   66  56  70 SE9       30.08F
ST PAUL        PTSUNNY   65  56  72 SE12      30.09S
CRYSTAL        PTSUNNY   68  56  65 SE10      30.06F
BLAINE         PTSUNNY   66  57  72 SE5         N/A
LAKEVILLE      PTSUNNY   61  59  94 E5        30.08S
EDEN PRAIRIE   PTSUNNY   66  59  78 SE9       30.07S
SOUTH ST PAUL  PTSUNNY   64  56  73 SE5       30.09S
LAKE ELMO      FAIR      64  57  77 SE5       30.10S
$$
MNZ001>005-007-008-013>017-022>024-027-028-281500-
   Northwest Minnesota

CITY           SKY/WX    TMP DP  RH WIND       PRES   REMARKS
BEMIDJI        CLOUDY    61  58  89 SE5       30.05F
HALLOCK        MOSUNNY   64  61  88 S14       29.96S
ROSEAU         SUNNY     64  57  77 S12       30.00F
WARROAD        PTSUNNY   63  57  82 S7        30.01F
THIEF RVR FALL PTSUNNY   63  57  82 S10       30.00S
CROOKSTON      CLOUDY    64  61  88 SE12      29.99S
FOSSTON        CLOUDY    61  57  88 SE8       30.03F
DETROIT LAKES  PTSUNNY   63  59  88 SE8       30.04S
MOORHEAD       PTSUNNY   68  64  88 SE10      29.99F
PARK RAPIDS    CLOUDY    61  57  87 SE9       30.06S
MAHNOMEN       CLOUDY    62  58  88 SE8       30.02S
$$
MNZ006-009>011-018-025>026-281500-
   North Central Minnesota

CITY           SKY/WX    TMP DP  RH WIND       PRES   REMARKS
BAUDETTE       PTSUNNY   58  57  97 S8        30.03F
FLAG ISLAND    SUNNY     66  61  82 S10       30.00F
INTL FALLS     SUNNY     60  56  86 VRB3      30.07F
WASKISH        CLOUDY    61  61 100 SE3       30.04F
BIG FORK       MOSUNNY   59  57  94 S3        30.09F
LONGVILLE      PTSUNNY   59  59 100 SE3       30.07S
GRAND RAPIDS   MOSUNNY   55  54  94 S7        30.09F
CRANE LAKE     SUNNY     55  54  94 CALM      30.11F
ORR            SUNNY     55  54  94 CALM      30.08S
COOK           SUNNY     59  55  88 S3        30.10F
WALKER         PTSUNNY   63  58  83 S7        30.06S
$$
MNZ012-019>021-037-281500-
   Northeast Minnesota

CITY           SKY/WX    TMP DP  RH WIND       PRES   REMARKS
DULUTH         SUNNY     61  53  75 S8        30.12S
ELY            SUNNY     57  54  88 SW3       30.11S
HIBBING        MOSUNNY   55  52  89 CALM      30.11F
EVELETH        FOG       52  52 100 CALM      30.13S VSB 3/4
DULUTH HARBOR  SUNNY     61  57  88 CALM      30.13S
TWO HARBORS    SUNNY     61  55  82 CALM      30.11S
SILVER BAY     SUNNY     57  57 100 CALM      30.11S
GRAND MARAIS     N/A     61  52  72 E6        30.12S
G MARAIS ARPRT SUNNY     59  48  67 CALM      30.14S
$$
MNZ029>031-032-039>041-046>048-054>057-064-281500-
   West Central Minnesota

CITY           SKY/WX    TMP DP  RH WIND       PRES   REMARKS
FERGUS FALLS   PTSUNNY   66  57  72 SE10      30.02R
WHEATON        CLOUDY    61  59  94 E8        30.01F
MORRIS         CLOUDY    64  61  88 SE9       30.00F
ALEXANDRIA     CLOUDY    63  59  87 SE10      30.05F
ELBOW LAKE     FAIR      64  60  85 SE8       30.01F
WADENA         CLOUDY    63  59  88 SE7       30.04F
GLENWOOD       PTSUNNY   64  61  88 E8        30.04F
APPLETON       CLOUDY    64  61  88 SE9       30.00S
BENSON         CLOUDY    64  61  88 S9        30.02S
ORTONVILLE     CLOUDY    64  59  82 SE8       30.00S
MADISON        DRIZZLE   66  63  88 SE7       30.00S
WILLMAR        FAIR      64  61  88 SE10      30.05S
$$
MNZ033>034-036-042>043-049>051-058-059-281500-
   Central Minnesota

CITY           SKY/WX    TMP DP  RH WIND       PRES   REMARKS
ST CLOUD       PTSUNNY   65  58  78 SE5       30.06F
SAUK CENTRE    CLOUDY    63  59  86 SE10      30.05F
PAYNESVILLE    PTSUNNY   63  58  83 E8        30.06S HAZE
AITKIN         MOSUNNY   64  57  77 SE6       30.07F
PINE RIVER     PTSUNNY   63  57  82 SE8       30.10S
BRAINERD       PTSUNNY   64  57  78 SE8       30.08F
STAPLES        CLOUDY    61  57  88 SE5       30.06S
LONG PRAIRIE   PTSUNNY   63  59  88 E7        30.06S
LITTLE FALLS     N/A     63  55  77 SE3       30.08R
LITCHFIELD     PTSUNNY   66  63  88 SE10      30.06S
BUFFALO        PTSUNNY   65  58  78 E7        30.07F
MAPLE LAKE     PTSUNNY   67  62  82 SE6       30.07S
$$
MNZ037-044-045-052-053-281500-
   East Central Minnesota

CITY           SKY/WX    TMP DP  RH WIND       PRES   REMARKS
PRINCETON      PTSUNNY   63  57  82 E3        30.09S
MORA           CLOUDY    59  54  82 CALM      30.11F
CAMBRIDGE      MOSUNNY   64  54  68 CALM      30.07F
RUSH CITY      MOSUNNY   60  55  83 CALM      30.10F
MOOSE LAKE     CLOUDY    59  54  82 CALM      30.09S
HINCKLEY       CLOUDY    59  54  82 E3        30.11S
CLOQUET        SUNNY     59  54  82 SE3       30.12S
MCGREGOR       PTSUNNY   59  55  88 SE5       30.10F
$$
MNZ071>073-080-081-089-090-097-098-281500-
   Southwest Minnesota

CITY           SKY/WX    TMP DP  RH WIND       PRES   REMARKS
MONTEVIDEO     CLOUDY    64  63  94 S9        30.02S
GRANITE FALLS  CLOUDY    64  60  86 E9        30.03R
CANBY          CLOUDY    64  61  91 SE7       30.01S
MARSHALL       CLOUDY    64  59  82 SE10      29.99F
REDWOOD FALLS  CLOUDY    64  60  87 SE10      30.02S
OLIVIA         CLOUDY    63  59  88 SE8       30.03S
PIPESTONE      LGT RAIN  64  64 100 SE10      29.99F
WINDOM         LGT RAIN  64  63  94 SE9       30.03F
WORTHINGTON    CLOUDY    64  64 100 SE8       30.02F
JACKSON        LGT RAIN  63  61  94 SE9       30.03F
TRACY          CLOUDY    64  62  93 SE7       30.01F
SLAYTON        RAIN      63  63  99 CALM      30.02F
$$
MNZ065>067-074>077-082>085-091>093-281500-
   South Central Minnesota

CITY           SKY/WX    TMP DP  RH WIND       PRES   REMARKS
MANKATO        CLOUDY    64  55  72 SE12      30.06S
NEW ULM        CLOUDY    64  61  88 SE8       30.04F
ST JAMES       RAIN      64  63  94 E7        30.05F
FAIRMONT       CLOUDY    61  57  88 SE9       30.04F
GLENCOE        PTSUNNY   65  58  80 E9        30.06S
FARIBAULT      CLOUDY    68  57  68 SE8       30.08S
OWATONNA       CLOUDY    64  59  82 SE8       30.08S
WASECA         CLOUDY    61  54  77 SE9       30.09S
ALBERT LEA     RAIN      63  61  94 SE7       30.08S
$$
MNZ078>079-086>088-094>096-281500-
   Southeast Minnesota

CITY           SKY/WX    TMP DP  RH WIND       PRES   REMARKS
ROCHESTER      CLOUDY    63  60  90 SE9       30.11S
RED WING       PTSUNNY   66  55  68 SE8       30.09S HAZE
STANTON        PTSUNNY   65  58  79 SE5       30.08R
DODGE CENTER   CLOUDY    63  61  94 SE10      30.09F
WINONA         PTSUNNY   63  59  88 SE6       30.12R
AUSTIN         RAIN      63  61  94 SE3       30.09S
PRESTON        PTSUNNY   63  63 100 CALM      30.11F
$$
ABBREVIATIONS USED IN REMARKS
   TC - TEMPERATURES IN CELSIUS
  WCI - WIND CHILL INDEX
   HX - HEAT INDEX
  VSB - VISIBILITY
$$


USA.gov is the U.S. government's official web portal to all federal, state and local government web resources and services.